Weather History for Knoxville, TN

Change the Weather History Date:

Wednesday, July 11, 2012

  Actual Average Record
Temperature  
Mean Temperature 75 °F 78 °F  
Max Temperature 79 °F 88 °F 99 °F (1881)
Min Temperature 70 °F 69 °F 54 °F (1963)
Degree Days  
Heating Degree Days 0 0  
Month to date heating degree days 0 0  
Since 1 June heating degree days 3 4  
Since 1 July heating degree days 0 0  
Cooling Degree Days 10 14  
Month to date cooling degree days 197 144  
Year to date cooling degree days 852 611  
Since 1 June cooling degree days 539 449  
Growing Degree Days 24 (Base 50)    
Moisture  
Dew Point 69 °F    
Average Humidity 84    
Maximum Humidity 97    
Minimum Humidity 71    
Precipitation  
Precipitation 0.34 in 0.16 in 2.44 in (2000)
Month to date precipitation 2.64 1.83  
Year to date precipitation 28.21 27.08  
Snow  
Snow 0.00 in 0.00 in - ()
Month to date snowfall 0.0 0.0  
Since 1 June snowfall 0.0 0.0  
Since 1 July snowfall 0.0 0.0  
Snow Depth 0.00 in    
Sea Level Pressure  
Sea Level Pressure 30.06 in    
Wind  
Wind Speed 4 mph (ENE)    
Max Wind Speed 9 mph    
Max Gust Speed 12 mph    
Visibility 8 miles    
Events Rain    
T = Trace of Precipitation, MM = Missing Value Source: NWS Daily Summary

Daily Weather History Graph

Daily Weather History Graph

Search for Another Location

Airport:

Trip Planner

Search our weather history database for the weather conditions in past years. The results will help you decide how hot, cold, wet, or windy it might be!

Date:

Astronomy

Jul. 11, 2012 Rise Set
Actual Time 6:28 AM EDT 8:53 PM EDT
Civil Twilight 5:59 AM EDT 9:23 PM EDT
Nautical Twilight 5:22 AM EDT 9:59 PM EDT
Astronomical Twilight 4:42 AM EDT 10:39 PM EDT
Moon 12:56 AM EDT (7/11) 2:32 PM EDT (7/11)
Length of Visible Light 15h 23m
Length of Day
14h 24m
Last Quarter, 44% of the Moon is Illuminated
Jul 11
Last Quarter
Jul 19
New
Jul 26
First Quarter
Aug 1
Full
Aug 9
Last Quarter

Hourly Weather History & Observations

Time (EDT) Temp. Dew Point Humidity Pressure Visibility Wind Dir Wind Speed Gust Speed Precip Events Conditions
12:53 AM 71.1 °F 68.0 °F 90% 30.02 in 10.0 mi NNE 3.5 mph - N/A   Mostly Cloudy
1:53 AM 71.1 °F 68.0 °F 90% 30.01 in 10.0 mi Calm Calm - N/A   Overcast
2:53 AM 70.0 °F 68.0 °F 93% 30.00 in 10.0 mi North 5.8 mph - N/A   Mostly Cloudy
3:53 AM 70.0 °F 68.0 °F 93% 29.99 in 10.0 mi East 3.5 mph - N/A   Scattered Clouds
4:53 AM 70.0 °F 68.0 °F 93% 29.99 in 10.0 mi Calm Calm - 0.00 in Rain Light Rain
5:53 AM 70.0 °F 68.0 °F 93% 30.01 in 10.0 mi ENE 4.6 mph - 0.00 in Rain Light Rain
6:53 AM 70.0 °F 68.0 °F 93% 30.02 in 9.0 mi Calm Calm - 0.00 in Rain Light Rain
7:53 AM 71.1 °F 69.1 °F 93% 30.04 in 6.0 mi North 5.8 mph - 0.01 in Rain Light Rain
8:53 AM 71.1 °F 69.1 °F 93% 30.05 in 4.0 mi NNE 4.6 mph - 0.02 in Rain Light Rain
9:53 AM 71.1 °F 69.1 °F 93% 30.07 in 5.0 mi Calm Calm - 0.02 in Rain Light Rain
10:11 AM 71.6 °F 69.8 °F 94% 30.10 in 6.0 mi East 3.5 mph - 0.00 in Rain Light Rain
10:53 AM 72.0 °F 70.0 °F 93% 30.08 in 6.0 mi Calm Calm - 0.02 in Rain Light Rain
11:03 AM 71.6 °F 69.8 °F 94% 30.10 in 6.0 mi Calm Calm - 0.00 in Rain Light Rain
11:37 AM 71.6 °F 69.8 °F 94% 30.11 in 3.0 mi East 3.5 mph - 0.06 in Rain Rain
11:53 AM 72.0 °F 69.1 °F 91% 30.09 in 3.0 mi East 3.5 mph - 0.11 in Rain Rain
12:20 PM 71.6 °F 69.8 °F 94% 30.12 in 4.0 mi Calm Calm - 0.07 in Rain Rain
12:39 PM 71.6 °F 69.8 °F 94% 30.11 in 4.0 mi Calm Calm - 0.11 in Rain Rain
12:53 PM 72.0 °F 69.1 °F 91% 30.09 in 5.0 mi Calm Calm - 0.14 in Rain Rain
1:17 PM 73.4 °F 69.8 °F 88% 30.11 in 9.0 mi SSE 3.5 mph - 0.01 in Rain Light Rain
1:27 PM 73.4 °F 69.8 °F 88% 30.12 in 7.0 mi SSE 6.9 mph - 0.02 in Rain Light Rain
1:34 PM 73.4 °F 71.6 °F 94% 30.12 in 7.0 mi SSE 5.8 mph - 0.02 in Rain Light Rain
1:53 PM 73.9 °F 69.1 °F 85% 30.09 in 7.0 mi South 4.6 mph - 0.02 in Rain Light Rain
2:14 PM 75.2 °F 69.8 °F 83% 30.11 in 10.0 mi Calm Calm - 0.00 in   Overcast
2:53 PM 77.0 °F 68.0 °F 74% 30.07 in 10.0 mi Calm Calm - 0.00 in   Mostly Cloudy
3:46 PM 77.0 °F 68.0 °F 74% 30.09 in 10.0 mi Calm Calm - N/A   Mostly Cloudy
3:53 PM 77.0 °F 68.0 °F 74% 30.05 in 10.0 mi Calm Calm - N/A   Mostly Cloudy
4:53 PM 79.0 °F 69.1 °F 72% 30.04 in 10.0 mi East 4.6 mph - N/A   Mostly Cloudy
5:53 PM 79.0 °F 68.0 °F 69% 30.03 in 10.0 mi East 5.8 mph - N/A   Mostly Cloudy
6:53 PM 78.1 °F 69.1 °F 74% 30.02 in 10.0 mi ENE 8.1 mph - N/A   Mostly Cloudy
7:53 PM 77.0 °F 69.1 °F 76% 30.03 in 10.0 mi ENE 4.6 mph - N/A   Mostly Cloudy
8:53 PM 73.9 °F 69.1 °F 85% 30.04 in 10.0 mi NE 5.8 mph - N/A   Scattered Clouds
9:53 PM 73.9 °F 69.1 °F 85% 30.04 in 10.0 mi NE 3.5 mph - N/A   Scattered Clouds
10:53 PM 73.0 °F 69.1 °F 87% 30.06 in 10.0 mi NE 3.5 mph - N/A   Overcast
11:53 PM 73.0 °F 69.1 °F 87% 30.06 in 10.0 mi NE 5.8 mph - N/A   Mostly Cloudy